星链-35880(STARLINK-35880)

导读

STARLINK-35880是美国(US)于2025年12月17日发射的星链卫星,隶属于SpaceX公司的星链(Starlink)星座计划。该计划旨在构建全球卫星互联网星座,为全球范围提供低延迟、高速率的宽带互联网服务,此卫星是星链星座扩容部署过程中的一颗卫星,将助力完善星链网络的覆盖能力。

基本信息
目录编号:
67187
目录名称:
STARLINK-35880
国际标识:
2025-303AA
轨道中心:
EARTH
卫星名称:
星链-35880
卫星全名:
星链-35880(STARLINK-35880)
卫星状态:
在轨 (已飞行261 天)
发射日期:
2025-12-17 UTC
国别 :
美国 (US)
星等 :
--
轨道信息
数据来源 国际轨道数据 AOE轨道数据
星历时间 2026-09-03T18:44:31+0800
20小时前
查看轨道信息
2026-09-01T02:00:00+0800
3天前
查看轨道信息
半长轴 6861.18km 6861.185km
偏心率 0.0001366 0.0001943
轨道倾角 43.002° 43.002°
近地点辐角 220.619° 261.568°
升交点赤经 26.587° 41.826°
平近点角 139.456° 6.341°
近地点 482.105km 481.714km
远地点 483.981km 484.382km
周期 94.267分钟 94.267分钟
每日圈数 15.275821 15.275805
详细信息
固有亮度:
5
最大亮度:
2.5
卫星平台:
Starlink V1.0
覆盖范围:
全球
运营商:
太空探索技术公司
运营商所在国:
美国
制造商(研发单位):
太空探索技术公司
制造商所在国:
美国
使用方式:
暂无
卫星简介
Starlink 计划是 SpaceX 推出的全球卫星互联网项目,通过发射低轨道卫星,为全球尤其是偏远地区提供高速、低延迟的互联网服务。自 2019 年起,Starlink 已部署数千颗卫星,旨在缩小全球数字鸿沟,推动互联网普及。该项目还为军事、航空等行业提供通信支持,带来广泛经济效益。
2D轨道图
3D轨道图
轨道高度分析图
轨道倾角分析图
轨道综合分析图
查看轨道综合分析图
交会数据列表
事件ID 空间交会对象 最接近时刻(TCA) 交会距离 交会风险概率(CRP) 交会风险指数(CRI) 操作
CDM_260904-022106-393406-718721
2026-09-04T
02:21:03+0000
2.183 km
极远距离
2.092284E-6 低风险 0.41
CDM_260904-101206-393406-718721
2026-09-04T
10:12:04+0000
2.641 km
极远距离
1.453644E-6 低风险 0.38
CDM_260905-120506-718706-960421
2026-09-05T
12:05:22+0000
1.729 km
极远距离
1.000108E-6 低风险 0.35